When you browse on this site, cookies collect data to enhance your experience and personalize the content and advertising you see.
Visit our Privacy Policy to learn more. By continuing to use the site, you agree to this use of cookies and data.
  • In Denmark
  • List of Countries
  • For 7 days
  • Water Temperature
  • Satellite Maps
  • Weather Map
  • Weather Widgets
  • user-avatar
    Login

    Hourly Weather Bangor

    Today, 14 December, Friday

    Time Temperature Precipitation Wind Pressure Humidity
    00:00 -3°C° 0 mm 4 mps 747 mmHg 84%
    01:00 -3°C° 0 mm 4 mps 747 mmHg 84%
    02:00 -3°C° 0 mm 4 mps 747 mmHg 84%
    03:00 -3°C° 0 mm 4 mps 747 mmHg 85%
    04:00 -3°C° 0 mm 4 mps 747 mmHg 84%
    05:00 -3°C° 0 mm 4 mps 747 mmHg 83%
    06:00 -3°C° 0 mm 4 mps 747 mmHg 83%
    07:00 -3°C° 0 mm 4 mps 747 mmHg 82%
    08:00 -3°C° 0 mm 4 mps 747 mmHg 81%
    09:00 -3°C° 0 mm 4 mps 748 mmHg 80%
    10:00 -1°C° 0 mm 4 mps 748 mmHg 76%
    11:00 0°C° 0 mm 5 mps 748 mmHg 71%
    12:00 +1°C° 0 mm 5 mps 748 mmHg 67%
    13:00 +1°C° 0 mm 5 mps 748 mmHg 68%
    14:00 +1°C° 0 mm 5 mps 748 mmHg 70%
    15:00 +1°C° 0 mm 5 mps 748 mmHg 71%
    16:00 +1°C° 0 mm 5 mps 748 mmHg 73%
    17:00 0°C° 0 mm 5 mps 747 mmHg 76%
    18:00 0°C° 0 mm 5 mps 747 mmHg 78%
    19:00 -1°C° 0 mm 6 mps 747 mmHg 78%
    20:00 -1°C° 0 mm 6 mps 747 mmHg 78%
    21:00 -1°C° 0 mm 6 mps 747 mmHg 78%
    22:00 -1°C° 0 mm 6 mps 747 mmHg 78%
    23:00 -1°C° 0 mm 7 mps 746 mmHg 77%

    Tomorrow, 15 December, Saturday

    Time Temperature Precipitation Wind Pressure Humidity
    00:00 -1°C° 0 mm 7 mps 746 mmHg 77%
    01:00 -1°C° 0.1 mm 7 mps 745 mmHg 77%
    02:00 0°C° 0.1 mm 8 mps 744 mmHg 76%
    03:00 0°C° 0.1 mm 8 mps 743 mmHg 76%
    04:00 0°C° 0.4 mm 9 mps 742 mmHg 78%
    05:00 0°C° 0.4 mm 9 mps 742 mmHg 80%
    06:00 0°C° 0.4 mm 10 mps 741 mmHg 82%
    07:00 0°C° 0.5 mm 10 mps 740 mmHg 84%
    08:00 0°C° 0.5 mm 10 mps 739 mmHg 85%
    09:00 0°C° 0.5 mm 10 mps 738 mmHg 86%
    10:00 +1°C° 1.3 mm 10 mps 737 mmHg 87%
    11:00 +2°C° 1.3 mm 10 mps 736 mmHg 89%
    12:00 +2°C° 1.3 mm 10 mps 735 mmHg 91%
    13:00 +3°C° 2.4 mm 10 mps 733 mmHg 92%
    14:00 +5°C° 2.4 mm 9 mps 732 mmHg 93%
    15:00 +6°C° 2.4 mm 9 mps 730 mmHg 94%
    16:00 +7°C° 3.2 mm 9 mps 729 mmHg 93%
    17:00 +8°C° 3.2 mm 9 mps 728 mmHg 92%
    18:00 +9°C° 3.2 mm 10 mps 727 mmHg 91%
    19:00 +8°C° 0.2 mm 10 mps 728 mmHg 88%
    20:00 +7°C° 0.2 mm 10 mps 729 mmHg 86%
    21:00 +6°C° 0.2 mm 11 mps 730 mmHg 83%
    22:00 +5°C° 0 mm 9 mps 731 mmHg 82%
    23:00 +4°C° 0 mm 8 mps 732 mmHg 82%

    Day after tomorrow, 16 December, Sunday

    Time Temperature Precipitation Wind Pressure Humidity
    00:00 +3°C° 0 mm 7 mps 733 mmHg 81%
    01:00 +3°C° 0.1 mm 6 mps 734 mmHg 83%
    02:00 +2°C° 0.1 mm 5 mps 734 mmHg 84%
    03:00 +2°C° 0.1 mm 5 mps 735 mmHg 86%
    04:00 +2°C° 0.2 mm 5 mps 735 mmHg 87%
    05:00 +3°C° 0.2 mm 4 mps 735 mmHg 88%
    06:00 +3°C° 0.2 mm 4 mps 735 mmHg 89%
    07:00 +3°C° 0.1 mm 4 mps 736 mmHg 89%
    08:00 +3°C° 0.1 mm 4 mps 736 mmHg 90%
    09:00 +3°C° 0.1 mm 4 mps 736 mmHg 90%
    10:00 +4°C° 0 mm 4 mps 737 mmHg 86%
    11:00 +5°C° 0 mm 4 mps 737 mmHg 83%
    12:00 +6°C° 0 mm 5 mps 737 mmHg 80%
    13:00 +6°C° 0.2 mm 4 mps 737 mmHg 82%
    14:00 +6°C° 0.2 mm 4 mps 737 mmHg 83%
    15:00 +5°C° 0.2 mm 4 mps 737 mmHg 85%
    16:00 +5°C° 0.3 mm 3 mps 737 mmHg 86%
    17:00 +4°C° 0.3 mm 3 mps 737 mmHg 88%
    18:00 +4°C° 0.3 mm 3 mps 737 mmHg 90%
    19:00 +4°C° 0.1 mm 3 mps 738 mmHg 90%
    20:00 +3°C° 0.1 mm 3 mps 738 mmHg 90%
    21:00 +3°C° 0.1 mm 3 mps 739 mmHg 90%
    22:00 +3°C° 0 mm 3 mps 739 mmHg 90%
    23:00 +3°C° 0 mm 3 mps 739 mmHg 90%

    17 December, Monday

    Time Temperature Precipitation Wind Pressure Humidity
    00:00 +3°C° 0 mm 3 mps 740 mmHg 89%
    01:00 +3°C° 0 mm 3 mps 740 mmHg 89%
    02:00 +3°C° 0 mm 3 mps 740 mmHg 89%
    03:00 +3°C° 0 mm 3 mps 741 mmHg 89%
    04:00 +3°C° 0 mm 3 mps 741 mmHg 90%
    05:00 +3°C° 0 mm 3 mps 741 mmHg 90%
    06:00 +3°C° 0 mm 3 mps 742 mmHg 90%
    07:00 +3°C° 0 mm 3 mps 742 mmHg 90%
    08:00 +3°C° 0 mm 3 mps 742 mmHg 90%
    09:00 +3°C° 0 mm 3 mps 743 mmHg 90%
    10:00 +4°C° 0 mm 4 mps 743 mmHg 88%
    11:00 +5°C° 0 mm 5 mps 743 mmHg 85%
    12:00 +7°C° 0 mm 6 mps 743 mmHg 83%
    13:00 +7°C° 0 mm 6 mps 743 mmHg 84%
    14:00 +7°C° 0 mm 6 mps 742 mmHg 85%
    15:00 +6°C° 0 mm 7 mps 742 mmHg 86%
    16:00 +6°C° 0 mm 7 mps 742 mmHg 87%
    17:00 +6°C° 0 mm 8 mps 741 mmHg 88%
    18:00 +6°C° 0 mm 9 mps 741 mmHg 89%
    19:00 +7°C° 0.1 mm 9 mps 740 mmHg 88%
    20:00 +7°C° 0.1 mm 10 mps 740 mmHg 88%
    21:00 +8°C° 0.1 mm 10 mps 740 mmHg 87%
    22:00 +8°C° 0.1 mm 10 mps 739 mmHg 86%
    23:00 +8°C° 0.1 mm 11 mps 739 mmHg 85%

    18 December, Tuesday

    Time Temperature Precipitation Wind Pressure Humidity
    00:00 +8°C° 0.1 mm 11 mps 739 mmHg 84%
    01:00 +8°C° 0.1 mm 11 mps 738 mmHg 84%
    02:00 +8°C° 0.1 mm 12 mps 738 mmHg 84%
    03:00 +8°C° 0.1 mm 12 mps 737 mmHg 83%
    04:00 +8°C° 0.1 mm 12 mps 736 mmHg 82%
    05:00 +8°C° 0.1 mm 12 mps 735 mmHg 80%
    06:00 +7°C° 0.1 mm 13 mps 734 mmHg 78%
    07:00 +7°C° 0.8 mm 13 mps 733 mmHg 78%
    08:00 +6°C° 0.8 mm 14 mps 732 mmHg 78%
    09:00 +6°C° 0.8 mm 14 mps 732 mmHg 78%
    10:00 +6°C° 1.9 mm 14 mps 731 mmHg 80%
    11:00 +5°C° 1.9 mm 14 mps 730 mmHg 82%
    12:00 +5°C° 1.9 mm 14 mps 730 mmHg 84%
    13:00 +6°C° 2 mm 11 mps 730 mmHg 85%
    14:00 +6°C° 2 mm 9 mps 730 mmHg 87%
    15:00 +7°C° 2 mm 6 mps 729 mmHg 88%
    16:00 +5°C° 0.2 mm 6 mps 730 mmHg 88%
    17:00 +5°C° 0.2 mm 6 mps 730 mmHg 88%
    18:00 +4°C° 0.2 mm 6 mps 731 mmHg 88%
    19:00 +4°C° 0.2 mm 6 mps 731 mmHg 87%
    20:00 +4°C° 0.2 mm 6 mps 732 mmHg 86%
    21:00 +4°C° 0.2 mm 6 mps 732 mmHg 86%
    22:00 +4°C° 0.2 mm 6 mps 733 mmHg 86%
    23:00 +4°C° 0.2 mm 6 mps 733 mmHg 85%

    19 December, Wednesday

    Time Temperature Precipitation Wind Pressure Humidity
    00:00 +4°C° 0.2 mm 6 mps 733 mmHg 85%
    01:00 +4°C° 0.1 mm 6 mps 733 mmHg 86%
    02:00 +3°C° 0.1 mm 6 mps 733 mmHg 86%
    03:00 +3°C° 0.1 mm 5 mps 733 mmHg 86%
    04:00 +3°C° 0.1 mm 5 mps 734 mmHg 86%
    05:00 +3°C° 0.1 mm 6 mps 734 mmHg 85%
    06:00 +3°C° 0.1 mm 6 mps 734 mmHg 85%
    07:00 +3°C° 0.1 mm 6 mps 734 mmHg 84%
    08:00 +3°C° 0.1 mm 6 mps 734 mmHg 84%
    09:00 +3°C° 0.1 mm 6 mps 734 mmHg 83%
    10:00 +4°C° 0.1 mm 7 mps 734 mmHg 80%
    11:00 +5°C° 0.1 mm 7 mps 734 mmHg 77%
    12:00 +5°C° 0.1 mm 8 mps 733 mmHg 74%
    13:00 +5°C° 0.1 mm 8 mps 733 mmHg 75%
    14:00 +5°C° 0.1 mm 8 mps 733 mmHg 76%
    15:00 +5°C° 0.1 mm 8 mps 732 mmHg 77%
    16:00 +5°C° 0.3 mm 8 mps 732 mmHg 79%
    17:00 +5°C° 0.3 mm 8 mps 732 mmHg 80%
    18:00 +5°C° 0.3 mm 8 mps 732 mmHg 81%
    19:00 +5°C° 0.3 mm 8 mps 732 mmHg 82%
    20:00 +4°C° 0.3 mm 8 mps 732 mmHg 82%
    21:00 +4°C° 0.3 mm 8 mps 732 mmHg 83%
    22:00 +4°C° 0.1 mm 7 mps 732 mmHg 82%
    23:00 +4°C° 0.1 mm 7 mps 731 mmHg 82%
    Show more